This is the latest recevied weather packets stored in our database for station/object K9RCP-20. If no packets are shown the sender has not sent any weather packets the latest 10 day(s).
| Time | Temp. | Humidity | Pressure | Rain* | Wind** | Luminosity | Snow |
|---|---|---|---|---|---|---|---|
| 1778337015 | 12.22° C | 85% | 1018.3 hPa | 0 mm | - | 90 W/m² | - |
| 1778336710 | 12.22° C | 84% | 1018.2 hPa | 0 mm | - | 85 W/m² | - |
| 1778336405 | 11.67° C | 86% | 1018.1 hPa | 0 mm | - | 83 W/m² | - |
| 1778336102 | 11.11° C | 88% | 1018.4 hPa | 0 mm | - | 75 W/m² | - |
| 1778335799 | 10.56° C | 90% | 1018.4 hPa | 0 mm | - | 67 W/m² | - |
| 1778335495 | 10° C | 91% | 1017.9 hPa | 0 mm | - | 60 W/m² | - |
| 1778335193 | 10° C | 92% | 1018.2 hPa | 0 mm | - | 45 W/m² | - |
| 1778334890 | 10° C | 92% | 1018.3 hPa | 0 mm | - | 40 W/m² | - |
| 1778334588 | 9.44° C | 93% | 1018.2 hPa | 0 mm | - | 34 W/m² | - |
| 1778334285 | 9.44° C | 92% | 1018.2 hPa | 0 mm | - | 31 W/m² | - |
| 1778333983 | 9.44° C | 92% | 1018.4 hPa | 0 mm | - | 28 W/m² | - |
| 1778333679 | 10° C | 92% | 1018.3 hPa | 0 mm | - | 25 W/m² | - |
| 1778333377 | 9.44° C | 92% | 1018.1 hPa | 0 mm | - | 22 W/m² | - |
| 1778333075 | 8.89° C | 93% | 1018.2 hPa | 0 mm | - | 19 W/m² | - |
| 1778332772 | 8.89° C | 94% | 1018.2 hPa | 0 mm | - | 16 W/m² | - |
| 1778332469 | 8.89° C | 94% | 1018.1 hPa | 0 mm | - | 14 W/m² | - |
| 1778332166 | 8.89° C | 94% | 1018.1 hPa | 0 mm | - | 11 W/m² | - |
| 1778331861 | 8.89° C | 94% | 1018.2 hPa | 0 mm | - | 8 W/m² | - |
| 1778331558 | 8.89° C | 95% | 1018.1 hPa | 0 mm | - | 6 W/m² | - |
| 1778331255 | 8.89° C | 96% | 1017.8 hPa | 0 mm | - | 4 W/m² | - |
| 1778330951 | 8.33° C | 95% | 1018.2 hPa | 0 mm | - | 2 W/m² | - |
| 1778330648 | 8.89° C | 95% | 1018.1 hPa | 0 mm | - | 1 W/m² | - |
| 1778330346 | 8.89° C | 94% | 1018.2 hPa | 0 mm | - | 1 W/m² | - |
| 1778330043 | 8.89° C | 94% | 1018.2 hPa | 0 mm | - | 0 W/m² | - |
| 1778329738 | 8.89° C | 93% | 1018.2 hPa | 0 mm | - | 0 W/m² | - |
* Rain latest hour (hover to see other rain measurements)
** Current wind speed in m/s (hover to see current wind gust speed)